[ hide orbit diagram ]
For accurate long-term ephemerides, please instead use our Horizons system.This orbit viewer was implemented using two-body methods, and hence should not be used for determining accurate long-term trajectories (over several years or decades) or planetary encounter circumstances.
[ revert to old Java-based viewer ]
Orbital Elements at Epoch 2458600.5 (2019-Apr-27.0) TDB
Reference: JPL 26 (heliocentric ecliptic J2000)
Element | Value | Uncertainty (1-sigma) | Units |
e | .1341744498206811 | 3.6938e-08 | |
a | 2.40849488506135 | 9.8101e-09 | au |
q | 2.085336408962319 | 8.7666e-08 | au |
i | 7.639797930518073 | 3.8488e-06 | deg |
node | 139.1951164545441 | 2.8975e-05 | deg |
peri | 190.5261724196985 | 3.2024e-05 | deg |
M | 188.3606165236488 | 1.4071e-05 | deg |
tp | 2459251.425768499040 (2021-Feb-05.92576850) | 5.4512e-05 | TDB |
period | 1365.265196795241 3.74 | 8.3414e-06 2.284e-08 | d yr |
n | .2636850341201454 | 1.611e-09 | deg/d |
Q | 2.731653361160381 | 1.1126e-08 | au |
|
| | Orbit Determination Parameters
Additional Information
|
[ show covariance matrix ]
Physical Parameter Table
Parameter |
Symbol |
Value |
Units |
Sigma |
Reference |
Notes |
absolute magnitude |
H |
14.8 |
|
n/a |
MPO436109 |
|
|
46828 (1998 OU10) Discovered 1998-Jul-26 by Elst, E. W. at La Silla |
Reference: 20020921/Numbers.arc | Last Updated: 2004-04-19 |
|
|